CW8081 Thessaloniki GR current weather conditions

sailwx.info

Last reported at 2015-May-08 04:33 UTC.
Time now 2015-Aug-31 00:37 UTC

Location: N 40°34' E 022°58'.
View on Google Maps.

See reports from other nearby stations

  
Tides and Currents Weather Stations Pressure Air Temp Water Temp Dewpoint Dewpoint Depression Visibility Wind Speed Wind Dir Waves Ship Positions
date/time (UTC)wind fromknots sea level pressurealtimeterstation pressurevisibilityair tempwater tempwave heightnotes
2015-Aug-30 23:41 056 26.1
2015-Aug-30 23:31 056 26.1
2015-Aug-30 23:11 069 26.7
2015-Aug-30 23:01 071 26.7
2015-Aug-30 22:41 109 0 gusting 2 26.1
2015-Aug-30 22:31 119 26.1
2015-Aug-30 22:11 143 26.7
2015-Aug-30 22:01 143 26.7
2015-Aug-30 21:41 146 26.7
2015-Aug-30 21:31 146 26.7
2015-Aug-30 21:11 146 26.7
2015-Aug-30 21:01 146 26.7
2015-Aug-30 20:41 146 27.2
2015-Aug-30 20:31 144 27.8
2015-Aug-30 20:11 143 28.3
2015-Aug-30 20:01 143 28.3
2015-Aug-30 19:41 143 28.9
2015-Aug-30 19:31 143 28.9
2015-Aug-30 19:11 144 29.4
2015-Aug-30 19:01 144 29.4
2015-Aug-30 18:41 143 30.0
2015-Aug-30 18:31 143 30.6
2015-Aug-30 18:11 143 31.1
2015-Aug-30 18:01 143 31.7
2015-Aug-30 17:41 165 31.7
2015-Aug-30 17:31 165 31.7
2015-Aug-30 17:11 165 32.2
2015-Aug-30 17:01 165 32.2
2015-Aug-30 16:41 165 32.8
2015-Aug-30 16:31 165 32.8
2015-Aug-30 16:11 261 33.3
2015-Aug-30 16:01 259 33.3
2015-Aug-30 15:41 232 0 gusting 6 33.3
2015-Aug-30 15:31 250 33.3
2015-Aug-30 15:11 271 0 gusting 10 33.9
2015-Aug-30 15:01 214 4 gusting 10 33.9
2015-Aug-30 14:41 267 2 gusting 10 34.4
2015-Aug-30 14:31 254 5 gusting 11 34.4
2015-Aug-30 14:11 292 2 gusting 7 34.4
2015-Aug-30 14:01 279 2 gusting 10 33.9
2015-Aug-30 13:41 273 4 gusting 10 33.9
2015-Aug-30 13:31 264 5 gusting 12 33.3
2015-Aug-30 13:11 229 7 gusting 10 34.4
2015-Aug-30 13:01 243 2 gusting 12 34.4
2015-Aug-30 12:41 269 5 gusting 13 33.9
2015-Aug-30 12:31 235 7 gusting 13 33.9
2015-Aug-30 12:11 269 5 gusting 11 33.3
2015-Aug-30 12:01 268 6 gusting 13 33.3
2015-Aug-30 11:41 273 6 gusting 10 33.3
2015-Aug-30 11:31 235 6 gusting 13 32.8
2015-Aug-30 11:11 222 9 gusting 13 32.8
2015-Aug-30 11:01 214 6 gusting 13 33.3
2015-Aug-30 10:41 274 5 gusting 10 32.8
2015-Aug-30 10:31 320 3 gusting 10 32.2
2015-Aug-30 10:11 281 6 gusting 10 31.7
2015-Aug-30 10:01 286 4 gusting 10 31.7
2015-Aug-30 09:41 227 5 gusting 10 31.1
2015-Aug-30 09:31 217 5 gusting 8 31.1
2015-Aug-30 09:11 236 4 gusting 7 30.0
2015-Aug-30 09:01 202 5 gusting 6 29.4
2015-Aug-30 08:41 238 3 gusting 6 28.3
2015-Aug-30 08:31 224 0 gusting 6 28.3
2015-Aug-30 08:11 202 3 gusting 6 27.2
2015-Aug-30 08:01 207 4 gusting 6 27.2
2015-Aug-30 07:41 207 2 gusting 5 26.7
2015-Aug-30 07:31 203 26.1
2015-Aug-30 07:11 216 25.0
2015-Aug-30 07:01 216 25.0
2015-Aug-30 06:41 217 23.9
2015-Aug-30 06:31 217 23.9
2015-Aug-30 06:11 232 2 gusting 4 23.3
2015-Aug-30 06:01 278 22.8
2015-Aug-30 05:41 321 21.7
2015-Aug-30 05:31 321 21.1
2015-Aug-30 05:11 321 20.6
2015-Aug-30 05:01 321 20.0
2015-Aug-30 04:41 321 19.4
2015-Aug-30 04:31 321 19.4
2015-Aug-30 04:11 321 19.4
2015-Aug-30 04:01 321 19.4
2015-Aug-30 03:41 321 20.0
2015-Aug-30 03:31 321 20.0
2015-Aug-30 03:11 321 20.6
2015-Aug-30 03:01 321 20.6
2015-Aug-30 02:41 321 21.1
2015-Aug-30 02:31 321 21.7
2015-Aug-30 02:11 321 21.7
2015-Aug-30 02:01 321 22.2
2015-Aug-30 01:41 321 22.2
2015-Aug-30 01:31 321 22.2
2015-Aug-30 01:11 318 22.2
2015-Aug-30 01:01 059 21.7
2015-Aug-30 00:41 071 21.7
2015-Aug-30 00:31 071 22.2
2015-Aug-30 00:11 071 22.2
2015-Aug-30 00:01 071 22.2
2015-Aug-29 23:41 071 22.2
2015-Aug-29 23:31 071 22.8
2015-Aug-29 23:11 071 22.8
2015-Aug-29 23:01 071 23.3
2015-Aug-29 22:41 071 23.3
2015-Aug-29 22:31 071 23.3
2015-Aug-29 22:11 071 22.8
2015-Aug-29 22:01 071 22.8
2015-Aug-29 21:41 071 22.8
2015-Aug-29 21:31 134 23.3
2015-Aug-29 21:11 145 23.9
2015-Aug-29 21:01 145 23.9
2015-Aug-29 20:41 145 24.4
2015-Aug-29 20:31 145 24.4
2015-Aug-29 20:11 145 24.4
2015-Aug-29 20:01 145 25.0
2015-Aug-29 19:41 145 25.6
2015-Aug-29 19:31 145 25.6
2015-Aug-29 19:11 145 26.1
2015-Aug-29 19:01 145 26.7
2015-Aug-29 18:41 145 27.2
2015-Aug-29 18:31 145 27.8
2015-Aug-29 18:11 145 28.3
2015-Aug-29 18:01 145 28.9
2015-Aug-29 17:41 145 29.4
2015-Aug-29 17:31 145 29.4
2015-Aug-29 17:11 163 30.0
2015-Aug-29 17:01 160 30.0
2015-Aug-29 16:41 197 0 gusting 4 30.6
2015-Aug-29 16:31 197 2 gusting 7 30.6
2015-Aug-29 16:11 192 4 gusting 10 31.1
2015-Aug-29 16:01 206 6 gusting 10 31.1
2015-Aug-29 15:41 209 4 gusting 7 31.7
2015-Aug-29 15:31 195 6 gusting 10 31.7
2015-Aug-29 15:11 213 6 gusting 10 31.7
2015-Aug-29 15:01 215 7 gusting 10 31.7
2015-Aug-29 14:41 194 6 gusting 10 31.7
2015-Aug-29 14:31 238 6 gusting 11 32.2
2015-Aug-29 14:11 189 7 gusting 11 32.2
2015-Aug-29 14:01 211 4 gusting 11 31.7
2015-Aug-29 13:41 224 7 gusting 11 32.2
2015-Aug-29 13:31 236 7 gusting 12 32.2
2015-Aug-29 13:11 211 7 gusting 13 32.2
2015-Aug-29 13:01 198 4 gusting 15 32.2
2015-Aug-29 12:41 209 8 gusting 11 32.8
2015-Aug-29 12:31 251 4 gusting 10 32.8
2015-Aug-29 12:11 263 4 gusting 8 32.2
2015-Aug-29 12:01 272 6 gusting 10 32.2
2015-Aug-29 11:41 243 6 gusting 8 31.7
2015-Aug-29 11:31 233 6 gusting 10 31.7
2015-Aug-29 11:11 264 6 gusting 8 31.1
2015-Aug-29 11:01 199 5 gusting 7 31.1
2015-Aug-29 10:41 234 3 gusting 7 30.6
2015-Aug-29 10:31 238 3 gusting 7 30.0
2015-Aug-29 10:11 209 5 gusting 7 29.4
2015-Aug-29 10:01 207 6 gusting 7 29.4
2015-Aug-29 09:41 275 4 gusting 7 29.4
2015-Aug-29 09:31 210 4 gusting 7 29.4
2015-Aug-29 09:11 223 29.4
2015-Aug-29 09:01 215 28.9
2015-Aug-29 08:41 232 3 gusting 6 27.8
2015-Aug-29 08:31 227 0 gusting 6 27.2
2015-Aug-29 08:11 215 5 gusting 6 27.2
2015-Aug-29 08:01 211 26.1
2015-Aug-29 07:41 204 2 gusting 5 25.6
2015-Aug-29 07:31 200 2 gusting 6 25.6
2015-Aug-29 07:11 211 4 gusting 6 25.0
2015-Aug-29 07:01 198 4 gusting 6 25.0
2015-Aug-29 06:41 231 2 gusting 5 23.3
2015-Aug-29 06:31 231 23.3
2015-Aug-29 06:11 214 22.2
2015-Aug-29 06:01 207 22.2
2015-Aug-29 05:41 207 21.1
2015-Aug-29 05:31 207 21.1
2015-Aug-29 05:11 207 20.6
2015-Aug-29 05:01 207 20.6
2015-Aug-29 04:41 207 20.6
2015-Aug-29 04:31 207 20.0
2015-Aug-29 04:11 207 20.0
2015-Aug-29 04:01 207 20.0
2015-Aug-29 03:41 207 20.0
2015-Aug-29 03:31 123 20.0
2015-Aug-29 03:11 123 20.6
2015-Aug-29 03:01 123 20.6
2015-Aug-29 02:41 124 20.6
2015-Aug-29 02:31 123 20.6
2015-Aug-29 02:11 123 21.1
2015-Aug-29 02:01 123 21.1
2015-Aug-29 01:41 123 21.1
2015-Aug-29 01:31 123 21.7
2015-Aug-29 01:11 123 21.7
2015-Aug-29 01:01 123 21.7
2015-Aug-29 00:41 123 21.7
2015-Aug-29 00:31 123 21.7
2015-Aug-29 00:11 123 21.7
2015-Aug-29 00:01 123 21.7